Location: ???????
(38.3360°N, 23.6977°E)
Time: 05:49:39
(UTC+00:00)

ISS - Pass Details

Date: 17 November 2025
Orbit: 416 x 420 km, 51.6° (Epoch: 09 December)

Event Time Altitude Azimuth Distance (km) Brightness Sun altitude
Rises 15:32:48 0° 248° (WSW) 2,360 3.2 -4.8°
Reaches altitude 10° 15:34:59 10° 257° (WSW) 1,498 0.9 -5.2°
Maximum altitude 15:38:09 37° 327° (NNW) 665 -2.6 -5.7°
Drops below altitude 10° 15:41:19 10° 37° (NE) 1,500 -1.4 -6.3°
Enters shadow 15:42:13 - 42° (NE) 1,847 -1.0 -6.5°
